Location: Cork
(51.8990°N, 8.4960°W)
Time: 04:36:18
(UTC+01:00)

Iridium 66 - Visible Passes

Search period start: 27 September 2016 00:00
Search period end: 07 October 2016 00:00
Orbit: 776 x 779 km, 86.4° (Epoch: 26 September)

Date Brightness Start Highest point End Pass type
(mag) Time Alt. Az. Time Alt. Az. Time Alt. Az.
27 Sep 8.6 01:21:00 15° NW 01:21:00 15° NW 01:22:27 10° NNW visible
27 Sep 7.8 23:07:05 23° NNE 23:07:05 23° NNE 23:09:05 10° NNE visible
28 Sep 8.4 00:47:34 19° NNW 00:47:34 19° NNW 00:49:32 10° NNW visible
28 Sep 8.0 22:33:39 18° NNE 22:33:39 18° NNE 22:35:14 10° NNE visible
29 Sep 8.1 00:14:07 24° NNW 00:14:07 24° NNW 00:16:17 10° N visible
29 Sep 8.2 22:00:12 13° NE 22:00:12 13° NE 22:01:03 10° NNE visible
29 Sep 7.9 23:40:40 26° N 23:40:40 26° N 23:42:51 10° N visible
30 Sep 8.8 01:21:08 11° NW 01:21:08 11° NW 01:21:50 10° NW visible
30 Sep 7.8 23:07:13 24° NNE 23:07:13 24° NNE 23:09:17 10° N visible
01 Oct 8.6 00:47:41 16° NW 00:47:41 16° NW 00:49:18 10° NNW visible
01 Oct 7.9 22:33:46 20° NNE 22:33:46 20° NNE 22:35:32 10° NNE visible
02 Oct 8.3 00:14:14 21° NNW 00:14:14 21° NNW 00:16:13 10° N visible
02 Oct 8.0 22:00:18 16° NE 22:00:18 16° NE 22:01:34 10° NNE visible
02 Oct 8.0 23:40:46 24° NNW 23:40:46 24° NNW 23:42:54 10° N visible
03 Oct 8.2 21:26:50 11° NE 21:26:50 11° NE 21:27:11 10° NE visible
03 Oct 7.8 23:07:18 25° N 23:07:18 25° N 23:09:25 10° N visible
04 Oct 8.8 00:47:46 13° NW 00:47:46 13° NW 00:48:53 10° NNW visible
04 Oct 7.8 22:33:50 23° NNE 22:33:50 23° NNE 22:35:46 10° NNE visible
05 Oct 8.5 00:14:18 18° NNW 00:14:18 18° NNW 00:16:04 10° NNW visible
05 Oct 7.9 22:00:21 18° NNE 22:00:21 18° NNE 22:01:56 10° NNE visible
05 Oct 8.2 23:40:49 22° NNW 23:40:49 22° NNW 23:42:52 10° N visible
06 Oct 8.1 21:26:52 14° NE 21:26:52 14° NE 21:27:51 10° NNE visible
06 Oct 7.9 23:07:19 25° N 23:07:19 25° N 23:09:29 10° N visible
